This demonstration page uses our WeatherBlox Daily Observations layout. Learn more.

39.92423, -83.80882

Hourly Observations for December 23, 2018

Temp ( °F °C ) Dew Point ( °F °C ) Humidity (%) Winds ( mph kmh ) Pressure ( in mb ) Visibility ( mi km ) Precip ( " mm )
12:56 am 00:56 Clear 32 0 30 -1.1 92 92 S 6 9 30.11 1020 10 16.0934 0 0
1:56 am 01:56 Clear 33 0.6 30 -1.1 89 89 SSW 10 17 30.11 1020 10 16.0934 0 0
2:56 am 02:56 Clear 33 0.6 30 -1.1 89 89 SSW 9 15 30.1 1019 10 16.0934 0 0
3:56 am 03:56 Clear 33 0.6 30 -1.1 89 89 SSW 10 17 30.08 1019 10 16.0934 0 0
4:56 am 04:56 Clear 32 0 30 -1.1 92 92 SSW 8 13 30.07 1018 10 16.0934 0 0
5:56 am 05:56 Clear 32 0 30 -1.1 92 92 SW 6 9 30.08 1019 10 16.0934 0 0
6:56 am 06:56 Clear 32 0 30 -1.1 92 92 SSW 7 11 30.09 1019 10 16.0934 0 0
7:56 am 07:56 Sunny 30 -1.1 29 -1.7 96 96 SW 6 9 30.1 1019 10 16.0934 0 0
8:31 am 08:31 Mostly Cloudy 30 -1 30 -1 100 100 SSW 6 9 30.15 1021 9 14.48406 0 0
8:46 am 08:46 Cloudy 30 -1 30 -1 100 100 SSW 6 9 30.15 1021 9 14.48406 0 0
8:56 am 08:56 Cloudy 32 0 31 -0.6 96 96 SW 7 11 30.12 1020 10 16.0934 0 0
9:12 am 09:12 Cloudy 32 0 30 -1 93 93 SSW 7 11 30.15 1021 10 16.0934 0 0
9:56 am 09:56 Cloudy 33 0.6 31 -0.6 92 92 WSW 6 9 30.13 1020 10 16.0934 0 0
10:56 am 10:56 Cloudy 34 1.1 32 0 92 92 WNW 5 7 30.13 1020 8 12.87472 0 0
11:08 am 11:08 Cloudy 36 2 32 0 87 87 WNW 5 7 30.15 1021 7 11.26538 0 0
11:56 am 11:56 Cloudy with Mist and Fog 35 1.7 32 0 89 89 NW 6 9 30.1 1019 6 9.65604 0 0
12:56 pm 12:56 Cloudy with Mist and Fog 35 1.7 33 0.6 93 93 NW 8 13 30.06 1018 6 9.65604 0 0
1:35 pm 13:35 Cloudy 36 2 32 0 87 87 NW 6 9 30.09 1019 8 12.87472 0 0
1:56 pm 13:56 Cloudy 35 1.7 32 0 89 89 NW 7 11 30.06 1018 8 12.87472 0 0
2:56 pm 14:56 Cloudy 35 1.7 32 0 89 89 NW 7 11 30.07 1018 7 11.26538 0 0
3:56 pm 15:56 Cloudy 35 1.7 31 -0.6 85 85 NNW 10 17 30.07 1018 8 12.87472 0 0
4:56 pm 16:56 Cloudy with Mist and Fog 34 1.1 32 0 92 92 WNW 9 15 30.09 1019 5 8.0467 0 0
5:56 pm 17:56 Cloudy with Mist and Fog 33 0.6 31 -0.6 92 92 W 7 11 30.11 1020 6 9.65604 0 0
6:04 pm 18:04 Cloudy with Mist and Fog 34 1 30 -1 87 87 W 7 11 30.15 1021 6 9.65604 0 0
6:35 pm 18:35 Cloudy with Mist and Fog 34 1 30 -1 87 87 WNW 12 19 30.15 1021 6 9.65604 0 0
6:52 pm 18:52 Cloudy with Light Snow 34 1 30 -1 87 87 WNW 7 11 30.15 1021 5 8.0467 0 0.0254
6:56 pm 18:56 Cloudy with Light Snow 33 0.6 31 -0.6 92 92 WNW 9 15 30.13 1020 4 6.43736 0 0.0254
7:03 pm 19:03 Cloudy with Light Snow 34 1 30 -1 87 87 WNW 9 15 30.15 1021 3 4.82802 0 0.0254
7:23 pm 19:23 Cloudy with Light Snow 34 1 32 0 93 93 W 9 15 30.18 1022 2.5 4.02335 0 0.0254
7:31 pm 19:31 Cloudy with Light Snow 34 1 32 0 93 93 W 10 17 30.18 1022 3 4.82802 0 0.0254
7:56 pm 19:56 Cloudy with Mist and Fog 33 0.6 31 -0.6 92 92 W 12 19 30.16 1022 5 8.0467 0 0.0254
8:10 pm 20:10 Cloudy with Light Wintry Mix 34 1 30 -1 87 87 W 10 17 30.18 1022 7 11.26538 0 0.0254
8:56 pm 20:56 Cloudy with Light Snow 32 0 30 -1.1 92 92 W 10 17 30.18 1022 7 11.26538 0 0.0254
9:56 pm 21:56 Mostly Cloudy 32 0 30 -1.1 92 92 W 8 13 30.19 1022 8 12.87472 0 0.0254
10:56 pm 22:56 Cloudy 33 0.6 30 -1.1 89 89 W 12 19 30.2 1023 10 16.0934 0 0
11:11 pm 23:11 Cloudy 32 0 30 -1 93 93 W 10 17 30.24 1024 10 16.0934 0 0
11:20 pm 23:20 Cloudy 32 0 30 -1 93 93 W 13 20 30.24 1024 10 16.0934 0 0
11:56 pm 23:56 Cloudy 33 0.6 30 -1.1 89 89 WSW 10 17 30.21 1023 10 16.0934 0 0

Powered by AerisWeather